Location: Vancouver
(49.2500°N, 123.1330°W)
Time: 13:15:09
(UTC-08:00)

ERS-2 - Visible Passes

Search period start: 22 November 2014 00:00
Search period end: 02 December 2014 00:00
Orbit: 527 x 531 km, 98.5° (Epoch: 22 November)

Date Brightness Start Highest point End Pass type
(mag) Time Alt. Az. Time Alt. Az. Time Alt. Az.
25 Nov 4.3 06:56:28 10° ESE 06:59:42 27° ENE 07:02:58 10° N visible
26 Nov 4.6 06:46:10 10° ESE 06:49:05 21° ENE 06:52:01 10° NNE visible
27 Nov 4.9 06:35:57 10° E 06:38:27 17° ENE 06:40:58 10° NNE visible
28 Nov 5.0 06:25:55 10° E 06:27:49 14° ENE 06:29:44 10° NNE visible
29 Nov 5.3 06:16:19 10° ENE 06:17:11 11° NE 06:18:03 10° NE visible
